| time (UTC) | temp C | wind direction | speed KPH | gust KPH | rain 1hr cm | rain 24hr cm | rain mn cm | humidity % | barometer mb |
| 20260505065526 | 13 | 128 | 1.6 | 4.8 | 0.00 | 0.00 | 0.00 | 74 | 1010.7 |
| 20260505065026 | 14 | 139 | 0.0 | 1.6 | 0.00 | 0.00 | 0.00 | 74 | 1010.7 |
| 20260505064526 | 14 | 144 | 0.0 | 1.6 | 0.00 | 0.00 | 0.00 | 73 | 1010.8 |
| 20260505064026 | 14 | 144 | 0.0 | 1.6 | 0.00 | 0.00 | 0.00 | 73 | 1010.7 |
| 20260505063505 | 14 | 128 | 0.0 | 1.6 | 0.00 | 0.00 | 0.00 | 72 | 1010.8 |
| 20260505063005 | 14 | 124 | 0.0 | 3.2 | 0.00 | 0.00 | 0.00 | 72 | 1010.9 |
| 20260505062526 | 14 | 123 | 1.6 | 3.2 | 0.00 | 0.00 | 0.00 | 72 | 1010.8 |
| 20260505062026 | 14 | 123 | 1.6 | 3.2 | 0.00 | 0.00 | 0.00 | 72 | 1010.9 |
| 20260505061526 | 15 | 126 | 1.6 | 3.2 | 0.00 | 0.00 | 0.00 | 71 | 1010.7 |
| 20260505061026 | 15 | 142 | 0.0 | 1.6 | 0.00 | 0.00 | 0.00 | 70 | 1010.7 |
| 20260505060526 | 15 | 142 | 0.0 | 1.6 | 0.00 | 0.00 | 0.00 | 70 | 1010.6 |
| 20260505060005 | 15 | 142 | 0.0 | 1.6 | 0.00 | 0.00 | 0.00 | 70 | 1010.7 |
| 20260505055526 | 15 | 142 | 0.0 | 1.6 | 0.00 | 0.00 | 0.00 | 70 | 1010.6 |
| 20260505055006 | 15 | 142 | 0.0 | 1.6 | 0.00 | 0.00 | 0.00 | 70 | 1010.7 |
| 20260505054526 | 15 | 137 | 0.0 | 1.6 | 0.00 | 0.00 | 0.00 | 70 | 1010.7 |
| 20260505054026 | 15 | 136 | 0.0 | 6.4 | 0.00 | 0.00 | 0.00 | 70 | 1010.8 |
| 20260505053526 | 15 | 137 | 0.0 | 6.4 | 0.00 | 0.00 | 0.00 | 70 | 1010.7 |
| 20260505053026 | 15 | 122 | 0.0 | 1.6 | 0.00 | 0.00 | 0.00 | 71 | 1010.8 |
| 20260505052505 | 15 | 143 | 0.0 | 6.4 | 0.00 | 0.00 | 0.00 | 72 | 1010.9 |
| 20260505052026 | 15 | 145 | 1.6 | 6.4 | 0.00 | 0.00 | 0.00 | 73 | 1011.0 |
| 20260505051506 | 15 | 134 | 0.0 | 4.8 | 0.00 | 0.00 | 0.00 | 73 | 1010.8 |
| 20260505051005 | 15 | 148 | 0.0 | 3.2 | 0.00 | 0.00 | 0.00 | 74 | 1010.9 |
| 20260505050526 | 15 | 154 | 1.6 | 6.4 | 0.00 | 0.00 | 0.00 | 74 | 1010.9 |
| 20260505041526 | 15 | 0 | 0.0 | 0.0 | 0.00 | 0.00 | 0.00 | 73 | 1010.8 |
| 20260505041005 | 16 | 0 | 0.0 | 0.0 | 0.00 | 0.00 | 0.00 | 72 | 1010.8 |
| 20260505040526 | 16 | 0 | 0.0 | 0.0 | 0.00 | 0.00 | 0.00 | 72 | 1010.7 |
| 20260505040005 | 16 | 0 | 0.0 | 0.0 | 0.00 | 0.00 | 0.00 | 73 | 1010.7 |
| 20260505035505 | 16 | 0 | 0.0 | 0.0 | 0.00 | 0.00 | 0.00 | 72 | 1010.6 |
| 20260505035026 | 16 | 0 | 0.0 | 0.0 | 0.00 | 0.00 | 0.00 | 72 | 1010.7 |
| 20260505034526 | 16 | 0 | 0.0 | 0.0 | 0.00 | 0.00 | 0.00 | 72 | 1010.7 |
| 20260505034026 | 16 | 179 | 1.6 | 6.4 | 0.00 | 0.00 | 0.00 | 72 | 1010.6 |
| 20260505033527 | 16 | 176 | 1.6 | 8.0 | 0.00 | 0.00 | 0.00 | 71 | 1010.6 |
| 20260505033005 | 16 | 163 | 1.6 | 8.0 | 0.00 | 0.00 | 0.00 | 71 | 1010.6 |
| 20260505032505 | 16 | 160 | 1.6 | 8.0 | 0.00 | 0.00 | 0.00 | 71 | 1010.6 |
| 20260505032006 | 17 | 172 | 1.6 | 9.7 | 0.00 | 0.00 | 0.00 | 70 | 1010.6 |
| 20260505031505 | 17 | 165 | 3.2 | 9.7 | 0.00 | 0.00 | 0.00 | 71 | 1010.6 |
| 20260505031027 | 17 | 164 | 3.2 | 12.9 | 0.00 | 0.00 | 0.00 | 70 | 1010.6 |
| 20260505030505 | 17 | 176 | 3.2 | 12.9 | 0.00 | 0.00 | 0.00 | 70 | 1010.6 |
| 20260505030026 | 17 | 173 | 3.2 | 11.3 | 0.00 | 0.00 | 0.00 | 70 | 1010.7 |
| 20260505025505 | 17 | 170 | 3.2 | 8.0 | 0.00 | 0.00 | 0.00 | 69 | 1010.7 |
| 20260505025005 | 17 | 165 | 3.2 | 9.7 | 0.00 | 0.00 | 0.00 | 68 | 1010.7 |
| 20260505024526 | 17 | 153 | 1.6 | 9.7 | 0.00 | 0.00 | 0.00 | 67 | 1010.7 |
| 20260505024026 | 17 | 132 | 1.6 | 8.0 | 0.00 | 0.00 | 0.00 | 66 | 1010.7 |
| 20260505023505 | 17 | 124 | 1.6 | 4.8 | 0.00 | 0.00 | 0.00 | 65 | 1010.6 |
| 20260505023005 | 17 | 138 | 0.0 | 4.8 | 0.00 | 0.00 | 0.00 | 64 | 1010.6 |
| 20260505022526 | 17 | 148 | 0.0 | 4.8 | 0.00 | 0.00 | 0.00 | 63 | 1010.7 |
| 20260505022005 | 17 | 135 | 1.6 | 4.8 | 0.00 | 0.00 | 0.00 | 62 | 1010.6 |
| 20260505021526 | 17 | 133 | 1.6 | 8.0 | 0.00 | 0.00 | 0.00 | 62 | 1010.6 |
| 20260505021005 | 17 | 156 | 1.6 | 8.0 | 0.00 | 0.00 | 0.00 | 61 | 1010.6 |
| 20260505020526 | 17 | 154 | 3.2 | 9.7 | 0.00 | 0.00 | 0.00 | 62 | 1010.6 |
| 20260505020005 | 17 | 140 | 1.6 | 9.7 | 0.00 | 0.00 | 0.00 | 61 | 1010.6 |
| 20260505015526 | 17 | 123 | 1.6 | 6.4 | 0.00 | 0.00 | 0.00 | 61 | 1010.5 |
| 20260505015027 | 17 | 125 | 1.6 | 6.4 | 0.00 | 0.00 | 0.00 | 62 | 1010.3 |
| 20260505014506 | 17 | 158 | 1.6 | 8.0 | 0.00 | 0.00 | 0.00 | 63 | 1010.2 |
| 20260505014005 | 17 | 171 | 1.6 | 8.0 | 0.00 | 0.00 | 0.00 | 63 | 1010.4 |
| 20260505013526 | 17 | 169 | 1.6 | 8.0 | 0.00 | 0.00 | 0.00 | 64 | 1010.5 |
| 20260505013025 | 17 | 175 | 1.6 | 8.0 | 0.00 | 0.00 | 0.00 | 64 | 1010.4 |
| 20260505012526 | 17 | 170 | 1.6 | 8.0 | 0.00 | 0.00 | 0.00 | 64 | 1010.5 |
| 20260505012026 | 17 | 164 | 1.6 | 8.0 | 0.00 | 0.00 | 0.00 | 63 | 1010.4 |
| 20260505011505 | 17 | 157 | 0.0 | 6.4 | 0.00 | 0.00 | 0.00 | 63 | 1010.3 |
| 20260505011005 | 17 | 138 | 0.0 | 1.6 | 0.00 | 0.00 | 0.00 | 63 | 1010.3 |
| 20260505010505 | 17 | 132 | 0.0 | 3.2 | 0.00 | 0.00 | 0.00 | 62 | 1010.3 |
| 20260505010005 | 18 | 124 | 1.6 | 6.4 | 0.00 | 0.00 | 0.00 | 62 | 1010.1 |
| 20260505005526 | 18 | 118 | 1.6 | 6.4 | 0.00 | 0.00 | 0.00 | 62 | 1010.0 |
| 20260505005026 | 18 | 117 | 1.6 | 6.4 | 0.00 | 0.00 | 0.00 | 62 | 1010.0 |
| 20260505004526 | 18 | 117 | 1.6 | 4.8 | 0.00 | 0.00 | 0.00 | 62 | 1009.9 |
| 20260505004026 | 18 | 113 | 0.0 | 4.8 | 0.00 | 0.00 | 0.00 | 62 | 1010.0 |
| 20260505003526 | 18 | 141 | 0.0 | 3.2 | 0.00 | 0.00 | 0.00 | 61 | 1010.0 |
| 20260505003007 | 18 | 154 | 0.0 | 3.2 | 0.00 | 0.00 | 0.00 | 61 | 1010.0 |
| 20260505002505 | 18 | 140 | 0.0 | 3.2 | 0.00 | 0.00 | 0.00 | 60 | 1010.0 |
| 20260505002026 | 18 | 125 | 0.0 | 3.2 | 0.00 | 0.00 | 0.00 | 60 | 1010.0 |
| 20260505001526 | 18 | 116 | 1.6 | 9.7 | 0.00 | 0.00 | 0.00 | 59 | 1009.9 |
| 20260505001006 | 18 | 117 | 1.6 | 9.7 | 0.00 | 0.00 | 0.00 | 59 | 1010.0 |
| 20260505000505 | 19 | 118 | 1.6 | 3.2 | 0.00 | 0.00 | 0.00 | 58 | 1010.0 |
| 20260505000005 | 19 | 110 | 1.6 | 3.2 | 0.00 | 0.00 | 0.00 | 57 | 1009.9 |
| 20260504235505 | 19 | 112 | 1.6 | 4.8 | 0.00 | 0.00 | 0.00 | 56 | 1010.0 |
| 20260504235005 | 20 | 120 | 1.6 | 4.8 | 0.00 | 0.00 | 0.00 | 54 | 1010.0 |
| 20260504234526 | 20 | 111 | 1.6 | 4.8 | 0.00 | 0.00 | 0.00 | 53 | 1010.0 |
| 20260504234026 | 20 | 115 | 1.6 | 8.0 | 0.00 | 0.00 | 0.00 | 53 | 1010.0 |
| 20260504233525 | 20 | 118 | 3.2 | 8.0 | 0.00 | 0.00 | 0.00 | 51 | 1010.0 |
| 20260504233005 | 20 | 122 | 1.6 | 8.0 | 0.00 | 0.00 | 0.00 | 51 | 1009.9 |
| 20260504232505 | 20 | 134 | 3.2 | 8.0 | 0.00 | 0.00 | 0.00 | 50 | 1009.9 |
| 20260504232027 | 20 | 133 | 3.2 | 17.7 | 0.00 | 0.00 | 0.00 | 49 | 1009.9 |
| 20260504231526 | 20 | 148 | 3.2 | 17.7 | 0.00 | 0.00 | 0.00 | 49 | 1009.9 |
| 20260504231005 | 20 | 158 | 4.8 | 14.5 | 0.00 | 0.00 | 0.00 | 48 | 1010.0 |
| 20260504230505 | 20 | 160 | 6.4 | 17.7 | 0.00 | 0.00 | 0.00 | 47 | 1009.9 |
| 20260504230005 | 21 | 164 | 4.8 | 17.7 | 0.00 | 0.00 | 0.00 | 47 | 1009.9 |
| 20260504225526 | 21 | 155 | 4.8 | 17.7 | 0.00 | 0.00 | 0.00 | 47 | 1009.9 |
| 20260504225026 | 21 | 139 | 4.8 | 16.1 | 0.00 | 0.00 | 0.00 | 48 | 1009.9 |
| 20260504224526 | 21 | 139 | 4.8 | 16.1 | 0.00 | 0.00 | 0.00 | 46 | 1010.0 |
| 20260504224027 | 21 | 151 | 6.4 | 16.1 | 0.00 | 0.00 | 0.00 | 46 | 1010.0 |
| 20260504223505 | 21 | 157 | 8.0 | 19.3 | 0.00 | 0.00 | 0.00 | 46 | 1010.0 |
| 20260504223005 | 21 | 164 | 8.0 | 19.3 | 0.00 | 0.00 | 0.00 | 46 | 1010.0 |
| 20260504222505 | 21 | 154 | 8.0 | 19.3 | 0.00 | 0.00 | 0.00 | 46 | 1009.9 |
| 20260504222026 | 21 | 132 | 8.0 | 30.6 | 0.00 | 0.00 | 0.00 | 45 | 1010.0 |
| 20260504221504 | 21 | 133 | 8.0 | 30.6 | 0.00 | 0.00 | 0.00 | 44 | 1010.0 |
| 20260504221005 | 22 | 135 | 6.4 | 20.9 | 0.00 | 0.00 | 0.00 | 44 | 1009.9 |
| 20260504220527 | 22 | 132 | 4.8 | 20.9 | 0.00 | 0.00 | 0.00 | 44 | 1009.9 |
| 20260504220026 | 22 | 139 | 4.8 | 20.9 | 0.00 | 0.00 | 0.00 | 43 | 1009.9 |
| 20260504215526 | 22 | 131 | 6.4 | 19.3 | 0.00 | 0.00 | 0.00 | 43 | 1009.8 |
| 20260504215026 | 22 | 128 | 6.4 | 22.5 | 0.00 | 0.00 | 0.00 | 43 | 1009.8 |
| 20260504214527 | 22 | 145 | 6.4 | 22.5 | 0.00 | 0.00 | 0.00 | 43 | 1009.9 |
| 20260504214026 | 22 | 135 | 8.0 | 20.9 | 0.00 | 0.00 | 0.00 | 43 | 1009.9 |
| 20260504213507 | 22 | 133 | 9.7 | 24.1 | 0.00 | 0.00 | 0.00 | 41 | 1009.9 |
| 20260504213026 | 22 | 147 | 9.7 | 24.1 | 0.00 | 0.00 | 0.00 | 40 | 1009.9 |
| 20260504212505 | 23 | 155 | 8.0 | 19.3 | 0.00 | 0.00 | 0.00 | 40 | 1009.9 |
| 20260504212026 | 23 | 145 | 8.0 | 19.3 | 0.00 | 0.00 | 0.00 | 39 | 1009.9 |
| 20260504211505 | 23 | 145 | 6.4 | 24.1 | 0.00 | 0.00 | 0.00 | 38 | 1009.9 |
| 20260504211005 | 23 | 149 | 6.4 | 24.1 | 0.00 | 0.00 | 0.00 | 38 | 1009.9 |
| 20260504210505 | 23 | 137 | 8.0 | 20.9 | 0.00 | 0.00 | 0.00 | 38 | 1009.9 |
| 20260504210026 | 23 | 140 | 9.7 | 20.9 | 0.00 | 0.00 | 0.00 | 39 | 1009.9 |
| 20260504205504 | 23 | 135 | 8.0 | 22.5 | 0.00 | 0.00 | 0.00 | 37 | 1010.0 |
| 20260504205026 | 23 | 136 | 6.4 | 22.5 | 0.00 | 0.00 | 0.00 | 38 | 1010.1 |
| 20260504204526 | 24 | 121 | 6.4 | 19.3 | 0.00 | 0.00 | 0.00 | 38 | 1010.1 |
| 20260504204005 | 24 | 119 | 4.8 | 19.3 | 0.00 | 0.00 | 0.00 | 38 | 1010.0 |
| 20260504203526 | 24 | 126 | 4.8 | 17.7 | 0.00 | 0.00 | 0.00 | 37 | 1010.1 |
| 20260504203027 | 25 | 130 | 4.8 | 16.1 | 0.00 | 0.00 | 0.00 | 36 | 1010.0 |
| 20260504202526 | 25 | 152 | 3.2 | 14.5 | 0.00 | 0.00 | 0.00 | 35 | 1010.1 |
| 20260504202004 | 25 | 181 | 3.2 | 14.5 | 0.00 | 0.00 | 0.00 | 35 | 1010.2 |
| 20260504201505 | 25 | 171 | 4.8 | 11.3 | 0.00 | 0.00 | 0.00 | 34 | 1010.2 |
| 20260504201005 | 25 | 170 | 3.2 | 11.3 | 0.00 | 0.00 | 0.00 | 34 | 1010.2 |
| 20260504200505 | 25 | 187 | 3.2 | 11.3 | 0.00 | 0.00 | 0.00 | 35 | 1010.3 |
| 20260504200005 | 25 | 137 | 4.8 | 17.7 | 0.00 | 0.00 | 0.00 | 37 | 1010.4 |
| 20260504195526 | 24 | 120 | 4.8 | 17.7 | 0.00 | 0.00 | 0.00 | 35 | 1010.4 |
| 20260504195026 | 24 | 146 | 4.8 | 12.9 | 0.00 | 0.00 | 0.00 | 35 | 1010.6 |
| 20260504194526 | 25 | 169 | 4.8 | 12.9 | 0.00 | 0.00 | 0.00 | 34 | 1010.6 |
| 20260504194005 | 24 | 121 | 4.8 | 19.3 | 0.00 | 0.00 | 0.00 | 36 | 1010.7 |
| 20260504193525 | 24 | 132 | 6.4 | 19.3 | 0.00 | 0.00 | 0.00 | 33 | 1010.8 |
| 20260504193005 | 25 | 156 | 6.4 | 19.3 | 0.00 | 0.00 | 0.00 | 35 | 1011.0 |
| 20260504192526 | 25 | 159 | 6.4 | 19.3 | 0.00 | 0.00 | 0.00 | 33 | 1011.0 |
| 20260504192005 | 25 | 184 | 4.8 | 19.3 | 0.00 | 0.00 | 0.00 | 34 | 1011.1 |
| 20260504191526 | 25 | 176 | 6.4 | 19.3 | 0.00 | 0.00 | 0.00 | 34 | 1011.1 |
| 20260504191006 | 25 | 160 | 4.8 | 12.9 | 0.00 | 0.00 | 0.00 | 33 | 1011.2 |
| 20260504190526 | 25 | 170 | 4.8 | 12.9 | 0.00 | 0.00 | 0.00 | 33 | 1011.3 |
| 20260504190004 | 25 | 203 | 4.8 | 12.9 | 0.00 | 0.00 | 0.00 | 33 | 1011.3 |
| 20260504185526 | 25 | 203 | 4.8 | 12.9 | 0.00 | 0.00 | 0.00 | 35 | 1011.4 |
| 20260504185005 | 25 | 148 | 4.8 | 14.5 | 0.00 | 0.00 | 0.00 | 35 | 1011.4 |
| 20260504184505 | 25 | 143 | 4.8 | 14.5 | 0.00 | 0.00 | 0.00 | 34 | 1011.6 |
| 20260504184005 | 25 | 155 | 4.8 | 14.5 | 0.00 | 0.00 | 0.00 | 35 | 1011.7 |
| 20260504183526 | 25 | 172 | 3.2 | 14.5 | 0.00 | 0.00 | 0.00 | 33 | 1011.7 |
| 20260504183026 | 25 | 179 | 4.8 | 16.1 | 0.00 | 0.00 | 0.00 | 33 | 1011.7 |
| 20260504182526 | 25 | 167 | 4.8 | 16.1 | 0.00 | 0.00 | 0.00 | 33 | 1011.8 |
| 20260504182026 | 25 | 122 | 3.2 | 12.9 | 0.00 | 0.00 | 0.00 | 32 | 1011.8 |
| 20260504181525 | 25 | 126 | 4.8 | 12.9 | 0.00 | 0.00 | 0.00 | 32 | 1011.9 |
| 20260504181026 | 25 | 140 | 3.2 | 11.3 | 0.00 | 0.00 | 0.00 | 33 | 1012.0 |
| 20260504180506 | 24 | 172 | 4.8 | 16.1 | 0.00 | 0.00 | 0.00 | 33 | 1012.0 |
| 20260504180026 | 24 | 168 | 4.8 | 16.1 | 0.00 | 0.00 | 0.00 | 33 | 1012.1 |
| 20260504175506 | 24 | 126 | 4.8 | 17.7 | 0.00 | 0.00 | 0.00 | 32 | 1012.1 |
| 20260504175025 | 24 | 141 | 4.8 | 17.7 | 0.00 | 0.00 | 0.00 | 31 | 1012.2 |
| 20260504174526 | 24 | 165 | 4.8 | 11.3 | 0.00 | 0.00 | 0.00 | 33 | 1012.1 |
| 20260504174005 | 24 | 172 | 4.8 | 16.1 | 0.00 | 0.00 | 0.00 | 32 | 1012.3 |
| 20260504173526 | 23 | 176 | 6.4 | 17.7 | 0.00 | 0.00 | 0.00 | 35 | 1012.4 |
| 20260504173027 | 23 | 172 | 6.4 | 17.7 | 0.00 | 0.00 | 0.00 | 32 | 1012.4 |
| 20260504172505 | 23 | 202 | 6.4 | 20.9 | 0.00 | 0.00 | 0.00 | 32 | 1012.4 |
| 20260504172005 | 23 | 213 | 6.4 | 20.9 | 0.00 | 0.00 | 0.00 | 31 | 1012.6 |
| 20260504171526 | 23 | 232 | 6.4 | 17.7 | 0.00 | 0.00 | 0.00 | 32 | 1012.5 |
| 20260504171006 | 23 | 225 | 6.4 | 17.7 | 0.00 | 0.00 | 0.00 | 32 | 1012.6 |
| 20260504170504 | 23 | 205 | 8.0 | 17.7 | 0.00 | 0.00 | 0.00 | 31 | 1012.6 |
| 20260504151004 | 21 | 153 | 4.8 | 14.5 | 0.00 | 0.00 | 0.00 | 39 | 1014.0 |
| 20260504150526 | 20 | 170 | 4.8 | 14.5 | 0.00 | 0.00 | 0.00 | 39 | 1014.0 |
| 20260504141005 | 17 | 230 | 4.8 | 12.9 | 0.00 | 0.00 | 0.00 | 45 | 1014.3 |
| 20260504140505 | 17 | 203 | 4.8 | 12.9 | 0.00 | 0.00 | 0.00 | 46 | 1014.4 |
| 20260504130526 | 15 | 182 | 6.4 | 16.1 | 0.00 | 0.00 | 0.00 | 52 | 1014.7 |
| 20260504110505 | 10 | 175 | 4.8 | 16.1 | 0.00 | 0.00 | 0.00 | 66 | 1015.2 |
| 20260504100526 | 10 | 204 | 3.2 | 12.9 | 0.00 | 0.00 | 0.00 | 67 | 1015.3 |
| 20260504082004 | 10 | 166 | 1.6 | 3.2 | 0.00 | 0.00 | 0.00 | 67 | 1015.5 |
| 20260504081526 | 10 | 171 | 0.0 | 6.4 | 0.00 | 0.00 | 0.00 | 67 | 1015.5 |
| 20260504081027 | 10 | 184 | 1.6 | 6.4 | 0.00 | 0.00 | 0.00 | 67 | 1015.5 |
| 20260504080525 | 10 | 185 | 1.6 | 6.4 | 0.00 | 0.00 | 0.00 | 67 | 1015.5 |